Location: Montreal
(45.5087°N, 73.5540°W)
Time: 04:18:59
(UTC-04:00)

Tiangong 2 - Visible Passes

Search period start: 22 May 2018 00:00
Search period end: 01 June 2018 00:00
Orbit: 382 x 385 km, 42.8° (Epoch: 22 May)

Date Brightness Start Highest point End Pass type
(mag) Time Alt. Az. Time Alt. Az. Time Alt. Az.
22 May 1.7 22:07:51 10° SW 22:10:45 33° SSE 22:10:50 33° SSE visible
23 May 2.3 21:08:28 10° SW 21:11:06 24° SSE 21:13:43 10° ESE visible
23 May 1.9 22:44:25 10° WSW 22:46:39 37° SW 22:46:39 37° SW visible
24 May 1.4 21:44:45 10° WSW 21:47:46 42° S 21:49:54 17° ESE visible
24 May 3.3 23:21:13 10° W 23:22:08 17° WSW 23:22:08 17° WSW visible
25 May 1.2 22:21:27 10° WSW 22:24:32 51° S 22:25:09 42° SE visible
26 May 1.3 21:21:43 10° WSW 21:24:47 49° S 21:27:51 10° E visible
26 May 2.4 22:58:18 10° W 23:00:15 29° WSW 23:00:15 29° WSW visible
27 May 1.4 21:58:29 10° W 22:01:33 47° S 22:03:03 25° SE visible
28 May 2.2 22:35:25 10° W 22:38:00 29° SSW 22:38:00 29° SSW visible
29 May 1.7 21:35:32 10° W 21:38:30 39° SSW 21:40:45 15° SE visible
30 May 2.6 22:12:38 10° WSW 22:15:06 21° SSW 22:15:39 20° S visible
31 May 2.2 21:12:36 10° W 21:15:26 30° SSW 21:18:14 10° SE visible
